Location: Arqu�ves
(50.0734°N, 2.4675°E)
Time: 05:40:45
(UTC+00:00)

Daily predictions for brighter satellites

Satellite Brightness Start Highest point End
(mag) Time Altitude Azimuth Time Altitude Azimuth Time Altitude Azimuth
Cosmos 1464 Rocket 4.2 00:05:13 49° WSW 00:06:33 60° WNW 00:12:40 10° N
Cosmos 1025 Rocket 3.4 00:02:45 10° NNW 00:06:21 60° NNW 00:06:21 60° NNW
USA 267 4.0 00:01:06 10° ENE 00:07:23 51° N 00:13:40 10° W
Okean 1 Rocket 4.2 00:09:30 34° ENE 00:09:30 34° ENE 00:13:05 10° NNE
SJ 16-02 2.8 00:09:53 28° E 00:09:53 28° E 00:12:59 10° NE
Okean 2 Rocket 3.2 00:10:41 72° NNW 00:10:41 72° NNW 00:14:50 10° N
Cosmos 1538 Rocket 4.1 00:06:12 10° NNW 00:11:04 60° W 00:11:04 60° W
SL-16 R/B 2.2 00:07:02 10° NNW 00:12:46 77° ENE 00:13:48 60° SE
Nadezhda 4 Rocket 4.1 00:08:38 10° NNW 00:14:48 60° W 00:15:44 54° SW
Cosmos 2263 Rocket 4.4 00:14:58 12° ESE 00:15:51 12° E 00:17:59 10° ENE
Meteor 2-13 Rocket 4.3 00:10:04 10° N 00:16:13 86° E 00:17:19 63° SSE
Cosmos 158 Rocket 4.1 00:23:40 10° NNW 00:29:05 74° ENE 00:29:59 60° SE
Cosmos 2297 Rocket 2.1 00:28:55 65° SW 00:29:44 79° WNW 00:35:26 10° NNE
Cosmos 2344 4.4 00:22:34 10° NW 00:31:56 64° SW 00:38:10 33° S
Cosmos 1092 Rocket 4.0 00:29:24 10° NNW 00:35:35 66° W 00:36:34 57° SW
Cosmos 2112 Rocket 4.1 00:30:40 10° NNW 00:35:55 71° ENE 00:36:47 58° ESE
In-Cosmos 22 4.3 00:30:47 10° NNW 00:36:10 53° W 00:36:23 53° WSW
USA 229 DEB 4.2 00:36:45 37° SE 00:37:36 39° ESE 00:43:51 10° NE
USA 229 4.2 00:36:53 37° SE 00:37:44 39° ESE 00:43:56 10° NE
Cosmos 2237 Rocket 3.4 00:37:01 10° NW 00:41:12 28° W 00:41:12 28° W
Cosmos 2219 3.5 00:41:47 47° WSW 00:43:04 58° NW 00:48:38 10° NNE
Cosmos 2151 Rocket 4.0 00:43:30 52° WNW 00:43:30 52° WNW 00:47:34 10° N
Meteor 1-15 Rocket 4.1 00:43:07 68° S 00:43:54 86° E 00:49:30 10° NNE
Cosmos 1898 Rocket 4.1 00:43:57 40° ESE 00:44:21 41° ESE 00:49:14 10° NE
Cosmos 1892 Rocket 4.2 00:43:02 10° N 00:47:21 47° ENE 00:47:51 45° E
Meteor 1-24 Rocket 3.8 00:42:30 10° N 00:47:54 64° ENE 00:49:06 50° SE
NOSS 3-1 (A) 4.3 00:48:36 30° SE 00:49:07 31° ESE 00:54:30 10° NE
Meteor 1-29 4.2 00:46:38 10° NNE 00:49:04 40° NE 00:49:04 40° NE
CZ-4 R/B 3.9 00:45:50 10° N 00:50:50 69° WNW 00:51:18 65° WSW
Cosmos 1674 3.8 00:47:20 10° NNW 00:49:53 38° NW 00:49:53 38° NW
Lacrosse 4 Rocket 4.4 00:49:43 10° NW 00:51:02 11° NNW 00:52:20 10° N
Cosmos 1680 Rocket 3.3 00:45:52 10° NNW 00:51:07 79° WSW 00:51:28 74° SSW
Spot 1 4.3 00:52:54 57° ENE 00:53:00 57° ENE 00:57:01 10° N
Cosmos 1603 4.5 00:47:39 10° NNW 00:53:17 50° NE 00:57:17 19° ESE
Cosmos 1461 3.0 00:55:29 77° ENE 00:55:29 77° ENE 00:59:51 10° NE
ATLAS 3B R/B 4.5 00:56:19 10° WNW 01:01:53 27° NNW 01:07:35 10° NE
DELTA 2 DEB (DPAF) 4.2 01:05:02 63° ESE 01:05:32 70° ENE 01:09:59 10° N
PSLV R/B 4.4 01:01:16 10° N 01:05:45 45° WNW 01:06:13 43° W
CZ-2D R/B 2.9 01:01:13 10° NNE 01:06:28 43° E 01:08:00 35° SE
Cosmos 1340 Rocket 4.1 01:07:07 31° E 01:07:16 31° E 01:10:46 10° NNE
Cosmos 1766 3.5 01:11:18 63° NNW 01:11:18 63° NNW 01:14:42 10° N
Cosmos 1943 3.7 01:06:20 10° NNW 01:11:53 57° NE 01:16:10 17° SE
SL-16 R/B 2.6 01:09:25 35° SSE 01:12:14 78° ENE 01:18:30 10° NNW
Cosmos 1733 3.4 01:14:34 66° NNW 01:14:34 66° NNW 01:17:59 10° N
Cosmos 1626 2.7 01:12:20 10° NNW 01:15:17 52° NNW 01:15:17 52° NNW
Cosmos 1655 Rocket 3.9 01:09:56 10° N 01:16:13 86° E 01:18:27 43° SSE
Cosmos 2292 Rocket 4.5 01:12:41 10° N 01:19:59 81° ENE 01:22:07 42° SSE
Cosmos 2227 Rocket 3.0 01:18:31 32° W 01:20:29 44° NW 01:25:55 10° NNE
Cosmos 1544 Rocket 4.4 01:22:37 38° SE 01:23:31 44° E 01:27:45 10° NNE
Meteor 2-5 Rocket 3.8 01:18:52 10° NNW 01:24:18 53° W 01:25:04 49° WSW
Cosmos 1470 3.3 01:24:19 50° ESE 01:24:32 51° E 01:28:25 10° NNE
Cosmos 1953 4.2 01:23:54 20° ESE 01:25:07 23° E 01:28:22 10° NE
NPP 4.1 01:20:03 10° NNE 01:25:20 52° E 01:27:04 37° SSE
Helios 1B rocket 3.3 01:22:06 10° N 01:25:54 37° WNW 01:25:58 37° WNW
Meteor 1-22 Rocket 4.0 01:25:04 57° SSW 01:26:13 87° WNW 01:31:39 10° NNE
Cosmos 2279 Rocket 4.0 01:29:43 45° SW 01:31:33 66° WNW 01:37:45 10° N
Cosmos 1805 4.2 01:32:08 35° WNW 01:32:08 35° WNW 01:35:29 10° N
AQUA 4.5 01:28:26 10° NNE 01:33:03 47° E 01:34:26 36° SE
Resurs 1-4 Rocket 2.1 01:34:42 10° NNE 01:40:00 80° ESE 01:41:36 46° S
Exosat Rocket 4.4 01:36:53 34° S 01:40:23 66° ESE 01:46:15 10° NNE
Cosmos 2180 Rocket 4.5 01:39:58 43° SW 01:41:59 69° WNW 01:48:08 10° N
Cosmos 1602 Rocket 4.4 01:38:05 10° N 01:42:17 46° ENE 01:44:25 25° SE
Cosmos 2098 Rocket 3.8 01:38:12 10° NNW 01:43:44 78° W 01:46:32 36° S
NOSS 2-3 (E) 3.7 01:44:49 55° S 01:45:33 65° SE 01:50:39 10° NE
Cosmos 2227 4.4 01:44:00 40° S 01:45:58 65° ESE 01:51:42 10° NE
Cosmos 2082 4.3 01:44:36 32° WSW 01:46:42 46° NW 01:52:07 10° NNE
Okean 1 Rocket 4.3 01:46:41 27° W 01:47:04 27° WNW 01:50:50 10° N
SJ 16-02 2.3 01:46:52 33° W 01:47:39 36° WNW 01:51:44 10° N
USA 267 4.0 01:43:32 10° E 01:49:51 53° NNE 01:56:11 10° WNW
NOSS 3-1 (C) 3.4 01:48:09 40° SW 01:50:21 78° NW 01:57:00 10° NE
SL-14 R/B 4.4 01:49:42 10° NNW 01:52:33 30° WNW 01:52:33 30° WNW
Cosmos 1048 Rocket 4.5 01:50:14 10° NNW 01:55:21 60° ENE 02:00:28 10° SE
SL-16 R/B 3.7 01:52:11 10° NW 01:55:38 20° W 01:55:38 20° W
Cosmos 2263 Rocket 2.2 01:56:40 39° S 01:58:45 72° ESE 02:04:18 10° NNE
CZ-4C R/B 3.9 02:05:30 36° WNW 02:05:30 36° WNW 02:08:26 10° NNW
Cosmos 372 Rocket 4.1 02:04:36 36° S 02:06:43 71° ESE 02:11:58 10° NNE
Okean 1-7 Rocket 4.2 02:04:13 10° NNW 02:08:19 37° W 02:08:38 37° WSW
Cosmos 1937 Rocket 3.7 02:07:18 37° SW 02:09:14 60° WNW 02:14:31 10° NNE
Meteor 1-28 Rocket 4.4 02:06:34 14° SE 02:09:34 42° ENE 02:13:11 10° N
Cosmos 1809 Rocket 4.4 02:03:30 10° NNW 02:09:37 77° W 02:13:15 26° S
NOSS 2-3 (D) 3.6 02:08:30 46° SW 02:09:52 90° NE 02:15:06 10° NE
COBE Rocket 3.7 02:08:32 39° S 02:10:13 71° W 02:14:53 10° NNW
SL-08 R/B 4.0 02:05:38 10° SSE 02:10:28 56° ENE 02:15:18 10° N
ADEOS II 2.4 02:06:23 10° NNE 02:11:37 63° ESE 02:14:32 26° S
Cosmos 1626 Rocket 3.4 02:07:28 10° NNW 02:11:47 70° W 02:13:03 44° SSW
Cosmos 1455 Rocket 3.6 02:12:38 38° WSW 02:13:36 45° WNW 02:17:55 10° N
CZ-4B R/B 3.3 02:09:49 10° NNE 02:14:37 82° ESE 02:16:40 34° S
Cosmos 2297 Rocket 4.1 02:10:42 11° W 02:14:42 21° NW 02:18:56 10° N
Cosmos 2285 Rocket 4.4 02:10:59 23° S 02:14:49 56° ESE 02:20:58 10° NNE
ATLAS CENTAUR R/B 2.2 02:13:46 32° SSE 02:14:51 39° ESE 02:18:30 10° NE
Cosmos 1726 2.0 02:14:19 55° S 02:15:03 88° E 02:18:44 10° N
Cosmos 2266 Rocket 4.4 02:14:25 10° NNW 02:20:22 45° W 02:22:57 30° SW
Cosmos 1844 Rocket 4.3 02:17:42 11° SSE 02:22:05 27° ESE 02:26:41 10° NE
GEOS 3 Rocket 3.7 02:20:09 10° NE 02:25:36 87° NW 02:28:25 30° SW
Cosmos 1898 Rocket 4.5 02:24:13 24° W 02:26:31 35° NW 02:31:17 10° N
Meteor 1-21 Rocket 4.2 02:22:42 10° NNW 02:28:12 65° W 02:31:40 23° S
Meteor 2-21 4.4 02:22:12 10° NNW 02:28:13 65° W 02:32:12 22° S
USA 229 DEB 4.0 02:24:11 24° WSW 02:28:17 61° NW 02:35:15 10° NE
USA 229 3.9 02:24:18 24° WSW 02:28:24 61° NW 02:35:20 10° NE
CBERS-1 4.0 02:23:15 10° NNE 02:28:24 87° WNW 02:31:10 28° SSW
Cosmos 468 4.4 02:23:10 10° NNW 02:28:26 75° WSW 02:33:36 11° SSE
Meteor 2-10 4.2 02:27:12 29° SSW 02:30:10 75° WNW 02:35:56 10° N
Cosmos 2084 3.7 02:28:47 34° SSW 02:30:30 60° SE 02:34:55 10° NE
ARIANE 5 R/B 3.2 02:26:51 10° NNE 02:32:00 52° E 02:36:11 15° S
Cosmos 1244 Rocket 4.5 02:27:27 10° N 02:33:51 82° W 02:39:39 12° S
Cosmos 1758 Rocket 3.6 02:30:15 10° N 02:34:36 80° ENE 02:38:14 15° SSE
Cosmos 1603 4.4 02:32:08 10° NW 02:37:12 33° WSW 02:39:05 27° SW
NOSS 2-3 (C) 4.1 02:35:34 28° WSW 02:37:51 59° NW 02:43:10 10° NE
NOSS 3-1 (A) 3.6 02:36:02 24° WSW 02:39:31 64° NW 02:46:10 10° NE
Cosmos 1340 Rocket 4.1 02:42:43 23° W 02:43:44 26° WNW 02:47:05 10° N
Cosmos 494 Rocket 3.9 02:38:35 10° NNW 02:43:47 88° WSW 02:48:59 10° SSE
Cosmos 2150 Rocket 4.0 02:42:28 26° SSW 02:45:31 85° WNW 02:50:50 10° NNE
CZ-2D R/B 3.1 02:41:28 10° N 02:46:25 35° WNW 02:49:19 21° WSW
H-2A R/B 3.2 02:44:33 10° SE 02:48:25 42° ENE 02:52:19 10° N
Cosmos 1703 3.2 02:46:13 10° NNW 02:50:10 65° W 02:52:42 21° S
Cosmos 1825 Rocket 3.4 02:48:49 10° N 02:53:11 85° W 02:57:30 10° S
Cosmos 1943 4.1 02:50:54 10° NW 02:55:36 28° WSW 02:57:52 21° SW
SL-16 R/B 3.8 02:54:31 19° WSW 02:56:30 22° W 03:01:14 10° NW
Landsat 5 4.5 02:53:27 10° SE 02:57:20 48° ENE 03:01:24 10° N
Cosmos 1125 Rocket 3.5 02:54:00 19° SSW 02:57:46 83° ESE 03:03:06 10° NNE
USA 215 3.9 02:52:26 10° ENE 02:58:42 46° SE 03:03:50 15° SSW
IRS-1C 4.1 02:54:22 10° NNE 02:59:44 77° WNW 03:03:50 17° SSW
Cosmos 1953 3.2 02:59:36 24° WSW 03:01:20 35° WNW 03:05:06 10° N
IRS-1D 4.0 02:57:57 10° N 03:02:49 46° WNW 03:06:07 20° SW
Cosmos 1328 3.9 03:00:05 10° NNW 03:04:00 54° W 03:07:02 16° S
Cosmos 1953 Rocket 3.6 03:00:08 10° N 03:04:40 86° E 03:09:07 10° S
Cosmos 2227 Rocket 4.5 03:03:14 10° WNW 03:06:08 14° NNW 03:09:02 10° N
CZ-4B R/B 4.5 03:04:17 10° ESE 03:06:19 16° ENE 03:08:20 10° NNE
CZ-2D R/B 3.4 03:05:19 10° NNE 03:09:20 77° ESE 03:12:51 13° S
Resurs 1-4 Rocket 3.8 03:15:32 10° N 03:19:15 20° NW 03:22:40 11° W
USA 238 DEB 4.3 03:12:23 10° NW 03:19:30 66° NE 03:26:55 10° ESE
USA 238 4.4 03:12:30 10° NW 03:19:36 65° NE 03:27:01 10° ESE
Meteor 2-8 Rocket 4.5 03:15:17 11° SSW 03:21:12 71° WNW 03:27:20 10° N
NOSS 8 (F) 4.2 03:20:18 20° SW 03:22:15 67° NW 03:25:17 10° NE
Cosmos 1606 Rocket 3.6 03:19:25 13° SSW 03:23:22 66° WNW 03:27:50 10° N
Atlas Centaur 2 4.3 03:20:39 10° SSW 03:23:35 14° S 03:27:01 10° SSE
CENTAUR R/B 3.9 03:17:59 10° NW 03:25:35 56° NE 03:34:06 10° ESE
NOSS 2-2 (E) 3.8 03:22:45 14° SSW 03:25:43 50° SE 03:29:40 10° NE
NOSS 2-2 (D) 4.2 03:23:29 11° SSW 03:26:39 40° ESE 03:30:21 10° NE
IDEFIX/ARIANE 42P 2.6 03:23:10 10° NNE 03:28:24 80° WNW 03:33:37 10° SSW
USA 267 3.3 03:26:05 10° ESE 03:32:39 89° SSW 03:39:14 10° WNW
Cosmos 1908 4.2 03:31:23 15° SW 03:34:04 31° WNW 03:37:35 10° N
MSX 4.0 03:28:29 10° NNE 03:34:17 82° ESE 03:40:04 10° SSW
COSMOS 2406 4.0 03:30:33 10° NNW 03:36:11 56° NE 03:41:45 10° SE
Cosmos 1726 Rocket 3.7 03:33:40 10° SSW 03:38:04 59° WNW 03:42:30 10° N
Cosmos 2228 3.5 03:36:23 11° SSW 03:40:22 44° WNW 03:44:37 10° N
Cosmos 2315 Rocket 4.4 03:35:57 10° S 03:42:15 73° E 03:48:38 10° NNE
ADEOS Rocket 4.4 03:35:30 10° SE 03:43:04 59° ENE 03:50:32 10° N
Cosmos 2263 Rocket 3.5 03:38:33 10° W 03:43:13 27° NW 03:47:54 10° NNE
Cosmos 1844 3.8 03:37:58 10° SSW 03:43:46 84° ESE 03:49:33 10° NNE
Cosmos 2084 Rocket 4.3 03:43:36 10° NW 03:47:59 58° NE 03:52:26 10° ESE
CZ-2C R/B 2.8 03:44:12 10° N 03:48:01 64° WNW 03:51:43 10° SSW
Cosmos 1455 4.2 03:46:55 10° SSE 03:50:22 31° E 03:53:49 10° NNE
ADEOS II 3.4 03:46:46 10° N 03:50:55 24° WNW 03:55:03 10° WSW
Cosmos 1356 Rocket 3.8 03:46:57 10° SW 03:50:55 44° WNW 03:54:52 10° N
Spot 4 Rocket 4.4 03:47:39 10° N 03:52:38 50° WNW 03:57:36 10° SW
ATLAS CENTAUR R/B 2.4 03:50:07 10° WSW 03:53:47 33° NW 03:57:18 10° NNE
Cosmos 1300 3.0 03:50:19 10° SSW 03:54:02 51° WNW 03:57:47 10° N
ERS-2 2.4 03:53:28 10° S 03:56:59 45° W 04:00:32 10° NNW
CZ-4C R/B 3.8 03:56:58 10° SSW 03:59:56 30° W 04:03:01 10° NNW
COSMOS 2441 4.5 03:58:26 10° N 04:03:13 63° WNW 04:07:58 10° SSW
Cosmos 2278 Rocket 3.7 03:59:45 10° S 04:04:53 36° ESE 04:10:02 10° NE
Cosmos 1076 Rocket 3.8 04:01:13 10° N 04:05:36 76° ENE 04:09:57 10° SSE
Cosmos 1844 Rocket 2.9 04:00:07 10° SW 04:05:37 58° NW 04:11:08 10° NNE
Cosmos 2251 Rocket 3.7 04:01:17 10° NNW 04:06:42 83° ENE 04:12:05 10° SSE
